EN

Hourly Weather La Colonia de París

Today, 24 July, Saturday

Time Temperature Precipitation Wind Pressure Humidity
00:00 +26°C° 0.4 mm 2 mps 757 mmHg 93%
01:00 +26°C° 0.4 mm 2 mps 757 mmHg 93%
02:00 +26°C° 0.2 mm 2 mps 757 mmHg 94%
03:00 +26°C° 0.2 mm 2 mps 756 mmHg 94%
04:00 +26°C° 0.2 mm 2 mps 756 mmHg 94%
05:00 +26°C° 0 mm 2 mps 756 mmHg 93%
06:00 +26°C° 0 mm 2 mps 757 mmHg 93%
07:00 +26°C° 0 mm 2 mps 757 mmHg 93%
08:00 +27°C° 0.1 mm 2 mps 757 mmHg 88%
09:00 +28°C° 0.1 mm 3 mps 757 mmHg 84%
10:00 +30°C° 0.1 mm 3 mps 757 mmHg 79%
11:00 +30°C° 1.3 mm 2 mps 757 mmHg 77%
12:00 +31°C° 1.3 mm 2 mps 757 mmHg 75%
13:00 +31°C° 1.3 mm 2 mps 756 mmHg 73%
14:00 +30°C° 2.8 mm 2 mps 756 mmHg 77%
15:00 +30°C° 2.8 mm 2 mps 756 mmHg 80%
16:00 +29°C° 2.8 mm 3 mps 756 mmHg 83%
17:00 +28°C° 1.5 mm 3 mps 756 mmHg 86%
18:00 +27°C° 1.5 mm 2 mps 756 mmHg 88%
19:00 +27°C° 1.5 mm 2 mps 757 mmHg 91%
20:00 +27°C° 0.7 mm 2 mps 757 mmHg 92%
21:00 +26°C° 0.7 mm 3 mps 757 mmHg 92%
22:00 +26°C° 0.7 mm 3 mps 758 mmHg 93%
23:00 +26°C° 0.3 mm 3 mps 757 mmHg 93%

Tomorrow, 25 July, Sunday

Time Temperature Precipitation Wind Pressure Humidity
00:00 +26°C° 0.3 mm 4 mps 757 mmHg 93%
01:00 +26°C° 0.3 mm 4 mps 757 mmHg 93%
02:00 +26°C° 0.3 mm 4 mps 757 mmHg 93%
03:00 +26°C° 0.3 mm 4 mps 756 mmHg 93%
04:00 +26°C° 0.3 mm 5 mps 756 mmHg 93%
05:00 +25°C° 0 mm 4 mps 756 mmHg 93%
06:00 +25°C° 0 mm 4 mps 756 mmHg 93%
07:00 +25°C° 0 mm 4 mps 757 mmHg 93%
08:00 +26°C° 0 mm 4 mps 757 mmHg 90%
09:00 +27°C° 0 mm 4 mps 757 mmHg 88%
10:00 +28°C° 0 mm 5 mps 758 mmHg 85%
11:00 +28°C° 0.1 mm 5 mps 757 mmHg 82%
12:00 +29°C° 0.1 mm 5 mps 757 mmHg 79%
13:00 +30°C° 0.1 mm 5 mps 757 mmHg 76%
14:00 +29°C° 0.7 mm 4 mps 756 mmHg 80%
15:00 +28°C° 0.7 mm 4 mps 756 mmHg 85%
16:00 +27°C° 0.7 mm 3 mps 756 mmHg 89%
17:00 +27°C° 0.6 mm 3 mps 756 mmHg 90%
18:00 +26°C° 0.6 mm 3 mps 756 mmHg 91%
19:00 +26°C° 0.6 mm 3 mps 757 mmHg 92%
20:00 +26°C° 0.4 mm 2 mps 757 mmHg 92%
21:00 +26°C° 0.4 mm 2 mps 757 mmHg 93%
22:00 +26°C° 0.4 mm 2 mps 758 mmHg 94%
23:00 +25°C° 0.4 mm 2 mps 758 mmHg 94%

Day after tomorrow, 26 July, Monday

Time Temperature Precipitation Wind Pressure Humidity
00:00 +25°C° 0.4 mm 2 mps 757 mmHg 95%
01:00 +25°C° 0.4 mm 2 mps 757 mmHg 95%
02:00 +25°C° 0.4 mm 2 mps 757 mmHg 96%
03:00 +25°C° 0.4 mm 2 mps 756 mmHg 96%
04:00 +25°C° 0.4 mm 1 mps 756 mmHg 96%
05:00 +25°C° 0.4 mm 1 mps 756 mmHg 96%
06:00 +25°C° 0.4 mm 1 mps 757 mmHg 96%
07:00 +25°C° 0.4 mm 1 mps 757 mmHg 96%
08:00 +26°C° 0.2 mm 1 mps 757 mmHg 93%
09:00 +26°C° 0.2 mm 1 mps 758 mmHg 90%
10:00 +27°C° 0.2 mm 1 mps 758 mmHg 87%
11:00 +28°C° 1 mm 1 mps 758 mmHg 85%
12:00 +28°C° 1 mm 1 mps 757 mmHg 82%
13:00 +29°C° 1 mm 2 mps 757 mmHg 80%
14:00 +28°C° 1.4 mm 2 mps 757 mmHg 83%
15:00 +28°C° 1.4 mm 2 mps 756 mmHg 85%
16:00 +27°C° 1.4 mm 2 mps 756 mmHg 88%
17:00 +27°C° 1.6 mm 2 mps 756 mmHg 90%
18:00 +26°C° 1.6 mm 2 mps 757 mmHg 92%
19:00 +26°C° 1.6 mm 2 mps 757 mmHg 94%
20:00 +26°C° 1.8 mm 1 mps 758 mmHg 95%
21:00 +25°C° 1.8 mm 1 mps 758 mmHg 96%
22:00 +25°C° 1.8 mm 1 mps 758 mmHg 97%
23:00 +25°C° 0.8 mm 1 mps 758 mmHg 96%

27 July, Tuesday

Time Temperature Precipitation Wind Pressure Humidity
00:00 +25°C° 0.8 mm 1 mps 758 mmHg 96%
01:00 +25°C° 0.8 mm 2 mps 758 mmHg 96%
02:00 +25°C° 0.5 mm 2 mps 757 mmHg 96%
03:00 +25°C° 0.5 mm 2 mps 757 mmHg 96%
04:00 +25°C° 0.5 mm 2 mps 757 mmHg 96%
05:00 +25°C° 0.1 mm 2 mps 757 mmHg 96%
06:00 +25°C° 0.1 mm 2 mps 757 mmHg 95%
07:00 +25°C° 0.1 mm 2 mps 758 mmHg 95%
08:00 +26°C° 0.1 mm 1 mps 758 mmHg 91%
09:00 +27°C° 0.1 mm 1 mps 759 mmHg 87%
10:00 +28°C° 0.1 mm 1 mps 759 mmHg 84%
11:00 +28°C° 0.5 mm 1 mps 759 mmHg 81%
12:00 +29°C° 0.5 mm 1 mps 758 mmHg 79%
13:00 +30°C° 0.5 mm 1 mps 758 mmHg 76%
14:00 +29°C° 1.4 mm 1 mps 757 mmHg 78%
15:00 +29°C° 1.4 mm 2 mps 757 mmHg 81%
16:00 +28°C° 1.4 mm 3 mps 757 mmHg 83%
17:00 +28°C° 1 mm 2 mps 757 mmHg 85%
18:00 +27°C° 1 mm 2 mps 757 mmHg 87%
19:00 +26°C° 1 mm 2 mps 757 mmHg 90%
20:00 +26°C° 0.3 mm 2 mps 758 mmHg 90%
21:00 +26°C° 0.3 mm 2 mps 758 mmHg 91%
22:00 +26°C° 0.3 mm 1 mps 758 mmHg 92%
23:00 +26°C° 0.1 mm 1 mps 758 mmHg 92%

28 July, Wednesday

Time Temperature Precipitation Wind Pressure Humidity
00:00 +26°C° 0.1 mm 1 mps 758 mmHg 92%
01:00 +26°C° 0.1 mm 1 mps 757 mmHg 92%
02:00 +26°C° 0 mm 1 mps 757 mmHg 92%
03:00 +26°C° 0 mm 1 mps 757 mmHg 92%
04:00 +25°C° 0 mm 1 mps 756 mmHg 92%
05:00 +26°C° 0 mm 1 mps 757 mmHg 92%
06:00 +26°C° 0 mm 1 mps 757 mmHg 92%
07:00 +26°C° 0 mm 1 mps 757 mmHg 91%
08:00 +27°C° 0 mm 1 mps 758 mmHg 87%
09:00 +28°C° 0 mm 1 mps 758 mmHg 83%
10:00 +29°C° 0 mm 1 mps 758 mmHg 78%
11:00 +30°C° 0.5 mm 1 mps 758 mmHg 75%
12:00 +30°C° 0.5 mm 1 mps 757 mmHg 73%
13:00 +31°C° 0.5 mm 1 mps 757 mmHg 70%
14:00 +31°C° 1.5 mm 1 mps 756 mmHg 72%
15:00 +30°C° 1.5 mm 1 mps 756 mmHg 75%
16:00 +30°C° 1.5 mm 1 mps 755 mmHg 77%
17:00 +29°C° 1.7 mm 1 mps 756 mmHg 81%
18:00 +28°C° 1.7 mm 1 mps 756 mmHg 84%
19:00 +27°C° 1.7 mm 1 mps 756 mmHg 88%
20:00 +27°C° 0 mm 1 mps 757 mmHg 88%
21:00 +27°C° 0 mm 1 mps 757 mmHg 89%
22:00 +27°C° 0 mm 1 mps 757 mmHg 89%
23:00 +26°C° 0 mm 1 mps 757 mmHg 90%

29 July, Thursday

Time Temperature Precipitation Wind Pressure Humidity
00:00 +26°C° 0 mm 1 mps 756 mmHg 91%
01:00 +26°C° 0 mm 1 mps 756 mmHg 92%
02:00 +26°C° 0 mm 1 mps 756 mmHg 92%
03:00 +26°C° 0 mm 1 mps 755 mmHg 92%
04:00 +26°C° 0 mm 1 mps 755 mmHg 92%
05:00 +26°C° 0 mm 1 mps 755 mmHg 92%
06:00 +26°C° 0 mm 1 mps 756 mmHg 91%
07:00 +26°C° 0 mm 1 mps 756 mmHg 91%
08:00 +27°C° 0 mm 1 mps 756 mmHg 86%
09:00 +29°C° 0 mm 1 mps 757 mmHg 81%
10:00 +30°C° 0 mm 1 mps 757 mmHg 75%
11:00 +30°C° 0.5 mm 1 mps 757 mmHg 73%
12:00 +31°C° 0.5 mm 1 mps 756 mmHg 71%
13:00 +32°C° 0.5 mm 2 mps 756 mmHg 69%
14:00 +31°C° 1.8 mm 2 mps 755 mmHg 71%
15:00 +31°C° 1.8 mm 2 mps 755 mmHg 73%
16:00 +30°C° 1.8 mm 2 mps 754 mmHg 75%
17:00 +29°C° 2.2 mm 1 mps 755 mmHg 78%
18:00 +28°C° 2.2 mm 1 mps 755 mmHg 82%
19:00 +27°C° 2.2 mm 1 mps 756 mmHg 86%
20:00 +27°C° 0.6 mm 1 mps 756 mmHg 86%
21:00 +27°C° 0.6 mm 1 mps 757 mmHg 87%
22:00 +27°C° 0.6 mm 1 mps 757 mmHg 87%
23:00 +27°C° 0 mm 1 mps 757 mmHg 88%
Show more